Regional Weather Roundup
Issued by NWS

Home | Current Version | Previous Version | Text Only | Print | Product List | Glossary On
Versions: 1 2 3 4 5 6 7 8 9 10 11 12 13 14 15 16 17 18 19 20 21 22 23 24 25 26 27 28 29 30 31 32 33 34 35 36 37 38 39 40 41 42 43 44 45 46 47
000
ASUS45 KBOU 242110
RWRCO

WEATHER ROUNDUP FOR COLORADO
NATIONAL WEATHER SERVICE DENVER/BOULDER CO
200 PM MST SAT FEB 24 2018

NOTE: "FAIR" INDICATES FEW OR NO CLOUDS BELOW 12000 FEET WITH NO
SIGNIFICANT WEATHER AND/OR OBSTRUCTIONS TO VISIBILITY.

COZ001>005-013-030-031-242200-
...NORTHWEST COLORADO...

CITY           SKY/WX    TMP DP  RH WIND       PRES   REMARKS
CRAIG          CLOUDY    21   5  50 W12       29.94F WCI   9
HAYDEN         LGT SNOW  19   9  63 W17       29.91F WCI   4
MEEKER         CLOUDY    23   2  40 S8G16     29.92F WCI  14
RANGELY        FAIR      29   6  37 W13       29.97F WCI  19
RABBIT EARS PA SNOW     N/A N/A N/A W13G22    29.70F VSB 1/2
STEAMBOAT SPGS CLOUDY    17   7  66 SW9       29.90F WCI   5
WALDEN         FAIR      18  -2  41 W24G30    29.77F WCI   0
$$

COZ006>008-011-242200-
...WEST CENTRAL VALLEYS...

CITY           SKY/WX    TMP DP  RH WIND       PRES   REMARKS
GRAND JUNCTION FAIR      34   7  32 MISG      29.99F
MONTROSE       FAIR      30   4  33 CALM      30.00F
EAGLE          FAIR      23   3  42 W22       29.94F WCI   8
RIFLE          PTSUNNY   26   7  44 W10       29.99F WCI  16
DELTA          FAIR      34   0  23 CALM      30.00F
NUCLA          FAIR      30   9  40 E3        30.04F
$$

COZ017>023-064>068-242200-
...SOUTHWEST COLORADO...

CITY           SKY/WX    TMP DP  RH WIND       PRES   REMARKS
DURANGO        FAIR      31   6  35 W18G25    29.94F WCI  19
CORTEZ         FAIR      33  -3  21 NW14      30.02F WCI  23
PAGOSA SPRINGS FAIR      29  -6  22 SW13G23   29.92F WCI  19
TELLURIDE      FAIR      20 -11  24 NW5       29.90F WCI  14
WOLF CREEK PAS   N/A      5   3  92 S22G33    29.82S WCI -16
$$

COZ009-010-012-014-032>034-037-058>063-242200-
...CENTRAL COLORADO...

CITY           SKY/WX    TMP DP  RH WIND       PRES   REMARKS
ASPEN          PTSUNNY   19   3  49 N10G18    29.85F WCI   7
BUENA VISTA    FAIR      26 -10  20 W25G37    29.77F WCI  11
COPPER MTN     CLOUDY     5  -2  72 W18G31    29.65S WCI -15
BERTHOUD PASS  SNOW      -4 -15  59 MISG      29.45F VSB 1/4
COTTONWOOD PAS FAIR      21  -6  30 W39G55    29.68R WCI   1
GUNNISON       FAIR      22  -1  36 W17G23    29.88F WCI   8
GRANBY         CLOUDY    15   7  72 W18G25    29.79F WCI  -2
KREMMLING      LGT SNOW  23  16  74 W14G28    29.85F VSB 3/4 WCI  11
LEADVILLE      MIX PCPN  11  -1  58 NW20G32   29.72F WCI  -7
MONARCH PASS     N/A      1  -2  85 SW32G44   29.80F WCI -25
SALIDA         FAIR      29  -5  22 W8G24     29.88F WCI  21
SUNLIGHT       FAIR       7   3  85 SW13G25   29.81S FOG     WCI  -9
WILKERSON PASS FAIR      10  -9  40 W20G36    29.61F WCI  -8
$$

COZ069>075-242200-
...SAN LUIS VALLEY/SANGRE DE CRISTO MOUNTAINS...

CITY           SKY/WX    TMP DP  RH WIND       PRES   REMARKS
ALAMOSA        FAIR      32 -10  16 W14G26    29.83F WCI  22
DEL NORTE      FAIR      31  -1  24 W20       29.82F WCI  19
LA VETA PASS   FAIR      23  -8  25 S22G37    29.85R WCI   8
SAGUACHE       FAIR      28  -6  22 NW31G38   29.84F WCI  12
$$

COZ035-036-038>040-242200-
...NORTHERN COLORADO FRONT RANGE...

CITY           SKY/WX    TMP DP  RH WIND       PRES   REMARKS
DENVER INTL AP FAIR      35   2  24 W24G31    29.73R WCI  23
AURORA         MOSUNNY   34   3  26 NW17      29.73S WCI  24
FRONT RANGE AP MOSUNNY   37   3  23 W31G39    29.74S
ERIE MUNI ARPT FAIR      35   3  25 NW10G16   29.80S WCI  27
BOULDER MUN AP FAIR      34   0  23 N10G17    29.73S WCI  26
CENTENNIAL     FAIR      34   4  28 N15G24    29.71F WCI  24
BROOMFIELD     MOSUNNY   32   1  27 W13G30    29.74S WCI  22
FORT COLLINS   FAIR      33   5  30 W17       29.73F WCI  22
LONGMONT       NOT AVBL
$$

COZ041-046-047-076>085-087-088-242200-
...PIKES PEAK/PALMER DIVIDE AND SOUTHERN FOOTHILLS...

CITY           SKY/WX    TMP DP  RH WIND       PRES   REMARKS
COLO. SPRINGS  FAIR      37  -6  16 NW22G33   29.72F
A. F. ACADEMY  FAIR      35  -7  16 W23G35    29.70S WCI  23
SCHRIEVER AFB  NOT AVBL
CHEYENNE MTN   FAIR      33  -7  18 SE12G17   29.64F WCI  24
ELLICOTT         N/A    N/A N/A N/A NW22G30   29.71F
FALCON         FAIR      32 -11  15 MISG      29.72S
FORT CARSON    FAIR      40  -9  12 W8        29.72S
LIMON          FAIR      38  -2  18 NW16G29   29.73S
MONUMENT HILL  FAIR      32  -4  21 W24G35    29.71F WCI  19
CANON CITY     SUNNY     43  -2  15 SW18G32   29.75S
WALSENBURG     NOT AVBL
TRINIDAD       FAIR      44 -12   9 NW21G32   29.76F
$$

COZ042>045-048>051-090-091-242200-
...NORTHEAST COLORADO...

CITY           SKY/WX    TMP DP  RH WIND       PRES   REMARKS
GREELEY ARPT   FAIR      33   6  32 W3        29.76F
AKRON          FAIR      35   7  31 NW26G41   29.74F WCI  22
BURLINGTON     FAIR      40  14  34 NW21G32   29.75F
WRAY           FAIR      39   9  28 NW24G40   29.77R
YUMA           NOT AVBL
STERLING       FAIR      36   7  30 NW29G43   29.75R
HOLYOKE        FAIR      37  12  35 NW23G37   29.75S
FORT MORGAN    FAIR      39   2  21 W21G26    29.76F
$$

COZ086-089-092>099-242200-
...SOUTHEAST COLORADO...

CITY           SKY/WX    TMP DP  RH WIND       PRES   REMARKS
PUEBLO         FAIR      47  -1  13 W25G37    29.75S
LA JUNTA       FAIR      48  -5  11 W15G26    29.76F
LAMAR          FAIR      47  11  23 W14G24    29.76F
SPRINGFIELD      N/A     46   6  19 W20G26    29.77S
$$




USA.gov is the U.S. government's official web portal to all federal, state and local government web resources and services.